FENGYUN 1C DEB

Satellite information

Favourite Embed

Satellite Type and Status

DEBRISIN ORBIT

Key statistics

Satellite FENGYUN 1C DEB at a glance.

Uptime

9609

Days in orbit

Revolutions

≈ 14.3

Per day

Orbit

SSO

Sun Synchronous Orbit

Inclination

99.0

Latest

Satellite identification and parameters

Extended collection of information and parameters for FENGYUN 1C DEB.

Object identification

Identified? True

Debris? True

Object name: FENGYUN 1C DEB

International designator: 1999-025DWP

Object number (NORAD): 36262

Object ID (CCSDS): 36262

Country: PEOPLES REPUBLIC OF CHINA (PRC)

Current information (Y/N): Y

RCS size: SMALL

Orbital parameters

Period: 100.869 minutes

Inclination: 98.9761 deg

SMA: 7177.921 km

Apoapsis: 842.714 km

Periapsis: 756.859 km

RAAN: 113.9998 deg

Eccentricy: 0.00598053

Argument of periapsis: 234.1417 deg

Mean anomaly: 125.42 deg

Mean motion: 14.27593986 rev/day

Mean motion (dot): 0.0000037 rev/day2

B* drag term: 0.00016629092 1/REarth

Two-line elements (TLE)

Creation date: Aug. 24, 2025, 6:52 p.m.

Reference frame: TEME

Reference center: EARTH

Epoch: Aug. 24, 2025, 9:03 a.m. UTC

TLE line 0: 0 FENGYUN 1C DEB

TLE line 1: 1 36262U 99025DWP 25236.37730830 .00000370 00000-0 16629-3 0 9990

TLE line 2: 2 36262 98.9761 113.9998 0059805 234.1417 125.4200 14.27593986879226

Live tracking on map

Real-time ground track for satellite FENGYUN 1C DEB.

In-orbit conjunctions

A list of the most updated potential collisions computed for object FENGYUN 1C DEB.

Target Orbit TCA Probability of collision Miss distance Type
SL-16 R/B LEO 2025-08-10 22:45:56 0.0002084463 153.0 (m) ROCKET BODY
COSMOS 158 LEO 2025-03-02 15:37:14 0.0004117903 173.0 (m) PAYLOAD
FENGYUN 1C DEB SSO 2024-09-25 21:29:54 0.00061941 165.0 (m) DEBRIS
COSMOS 1603 LEO 2024-07-21 00:13:18 0.000243464 70.0 (m) PAYLOAD

Associated space launch

Chinese polar orbiting meteorological satellite

FENGYUN 1C DEB was lifted into orbit during the mission ‘Long March 4B | Feng Yun 1C’, on board a Long March 4B space rocket.

The launch took place on May 10, 1999, 1:33 a.m. from Launch Complex 7.

For more information about the launch, click the button.

Launch to space Long March 4B | Feng Yun 1C
Long March 4B | Feng Yun 1C

Agency: N/A

Status: Launch Successful

Launch date: May 10, 1999, 1:33 a.m. UTC

Rocket: Long March 4B

Launch pad: Launch Complex 7

Location: Taiyuan Satellite Launch Center, People's Republic of China

...

Latest news about this satellite

There are no fresh news available about this satellite. Check back as we update our databases every day.


Newsletter sign-up

Weekly statistics, charts and insights to help you stay on top of the space industry.